Weather History for Naples, FL

Change the Weather History Date:

Monday, January 23, 2012

  Actual Average Record
Temperature  
Mean Temperature 70 °F 64 °F  
Max Temperature 81 °F 75 °F 87 °F (1975)
Min Temperature 58 °F 54 °F 31 °F (1985)
Degree Days  
Heating Degree Days 0 3  
Month to date heating degree days 72 82  
Since 1 July heating degree days 97 160  
Cooling Degree Days 5 3  
Month to date cooling degree days 35 69  
Year to date cooling degree days 35 69  
Growing Degree Days 20 (Base 50)    
Moisture  
Dew Point 60 °F    
Average Humidity 71    
Maximum Humidity 97    
Minimum Humidity 45    
Precipitation  
Precipitation 0.00 in 0.07 in 0.90 in (1980)
Month to date precipitation 0.02 1.27  
Year to date precipitation 0.02 1.27  
Snow  
Snow 0.00 in - - ()
Month to date snowfall 0.0  
Since 1 July snowfall 0.0  
Snow Depth 0.00 in    
Sea Level Pressure  
Sea Level Pressure 30.10 in    
Wind  
Wind Speed 6 mph (ESE)    
Max Wind Speed 16 mph    
Max Gust Speed 21 mph    
Visibility 10 miles    
Events      
T = Trace of Precipitation, MM = Missing Value Source: NWS Daily Summary

Daily Weather History Graph

Daily Weather History Graph

Search for Another Location

Airport:

Trip Planner

Search our weather history database for the weather conditions in past years. The results will help you decide how hot, cold, wet, or windy it might be!

Date:

Astronomy

Jan. 23, 2012 Rise Set
Actual Time 7:14 AM EST 6:03 PM EST
Civil Twilight 6:50 AM EST 6:27 PM EST
Nautical Twilight 6:22 AM EST 6:55 PM EST
Astronomical Twilight 5:54 AM EST 7:23 PM EST
Moon 7:15 AM EST (1/23) 6:40 PM EST (1/23)
Length of Visible Light 11h 37m
Length of Day
10h 48m
New Moon, 0% of the Moon is Illuminated
Jan 23
New Moon
Jan 30
First Quarter
Feb 7
Full
Feb 14
Last Quarter
Feb 21
New

Hourly Weather History & Observations

Time (EST) Temp. Heat Index Dew Point Humidity Pressure Visibility Wind Dir Wind Speed Gust Speed Precip Events Conditions
12:53 AM 62.1 °F - 57.9 °F 86% 30.11 in 10.0 mi Calm Calm - N/A   Clear
1:53 AM 62.1 °F - 57.0 °F 84% 30.11 in 10.0 mi NE 3.5 mph - N/A   Clear
2:53 AM 60.1 °F - 57.0 °F 90% 30.11 in 10.0 mi NE 4.6 mph - N/A   Partly Cloudy
3:24 AM 60.8 °F - 57.2 °F 88% 30.11 in 10.0 mi Calm Calm - N/A   Mostly Cloudy
3:35 AM 60.8 °F - 57.2 °F 88% 30.11 in 10.0 mi NE 3.5 mph - N/A   Scattered Clouds
3:53 AM 59.0 °F - 57.0 °F 93% 30.10 in 10.0 mi ENE 4.6 mph - N/A   Partly Cloudy
4:53 AM 59.0 °F - 57.0 °F 93% 30.10 in 8.0 mi NE 4.6 mph - N/A   Clear
5:53 AM 59.0 °F - 57.0 °F 93% 30.09 in 7.0 mi ENE 4.6 mph - N/A   Clear
6:53 AM 59.0 °F - 57.0 °F 93% 30.10 in 6.0 mi ENE 4.6 mph - N/A   Clear
7:53 AM 61.0 °F - 59.0 °F 93% 30.09 in 7.0 mi East 4.6 mph - N/A   Partly Cloudy
8:53 AM 68.0 °F - 62.6 °F 83% 30.11 in 9.0 mi East 8.1 mph - N/A   Clear
9:53 AM 73.9 °F - 64.9 °F 73% 30.12 in 10.0 mi SE 6.9 mph - N/A   Clear
10:53 AM 78.1 °F - 62.1 °F 58% 30.12 in 10.0 mi ESE 13.8 mph - N/A   Partly Cloudy
11:53 AM 80.6 °F 80.8 °F 57.2 °F 45% 30.12 in 10.0 mi SE 11.5 mph 20.7 mph N/A   Scattered Clouds
12:53 PM 79.0 °F - 62.1 °F 56% 30.09 in 10.0 mi SW 15.0 mph - N/A   Scattered Clouds
1:53 PM 78.1 °F - 62.1 °F 58% 30.07 in 10.0 mi SW 10.4 mph - N/A   Mostly Cloudy
2:53 PM 77.0 °F - 61.0 °F 58% 30.06 in 10.0 mi SSW 9.2 mph - N/A   Mostly Cloudy
3:53 PM 73.9 °F - 62.1 °F 66% 30.06 in 10.0 mi WSW 5.8 mph - N/A   Overcast
4:53 PM 73.0 °F - 63.0 °F 71% 30.06 in 10.0 mi SSW 3.5 mph - N/A   Mostly Cloudy
5:53 PM 73.0 °F - 64.0 °F 73% 30.06 in 10.0 mi SSW 6.9 mph - N/A   Scattered Clouds
6:53 PM 70.0 °F - 64.0 °F 81% 30.08 in 10.0 mi South 3.5 mph - N/A   Clear
7:53 PM 69.1 °F - 64.0 °F 84% 30.09 in 10.0 mi Calm Calm - N/A   Clear
8:53 PM 66.9 °F - 63.0 °F 87% 30.09 in 10.0 mi SE 3.5 mph - N/A   Clear
9:53 PM 66.0 °F - 63.0 °F 90% 30.10 in 10.0 mi East 3.5 mph - N/A   Clear
10:53 PM 64.9 °F - 62.1 °F 90% 30.11 in 10.0 mi ENE 3.5 mph - N/A   Clear
11:53 PM 64.0 °F - 62.1 °F 93% 30.11 in 10.0 mi NE 3.5 mph - N/A   Clear